GEFSSE_prec_meanprecacc_036.txt.gz
Total_Precipitation_Accumulation
0.00 0.00 0.02 0.00 0.00 0.00 0.00 0.00 0.00 0.00 0.00 0.01 0.02 0.02 0.00 0.00 0.00 0.00 0.00 0.00 0.00 0.01 0.00 0.00 0.00 0.00 0.00 0.00 0.00 0.00 0.00 0.00 0.00 0.00 0.00 0.01 0.01 0.01 0.01 0.01 0.02 0.03 0.01
0.00 0.00 0.01 0.00 0.00 0.00 0.00 0.00 0.00 0.00 0.00 0.00 0.00 0.00 0.00 0.00 0.00 0.00 0.00 0.00 0.00 0.00 0.00 0.00 0.00 0.00 0.00 0.00 0.00 0.00 0.00 0.00 0.00 0.00 0.00 0.00 0.00 0.00 0.01 0.00 0.03 0.03 0.01
0.00 0.00 0.00 0.00 0.00 0.00 0.00 0.00 0.00 0.00 0.00 0.00 0.00 0.00 0.00 0.00 0.00 0.00 0.00 0.00 0.00 0.00 0.00 0.00 0.00 0.00 0.00 0.00 0.00 0.00 0.00 0.00 0.00 0.00 0.00 0.00 0.00 0.00 0.00 0.00 0.00 0.00 0.01
0.00 0.00 0.00 0.00 0.00 0.00 0.00 0.00 0.00 0.00 0.00 0.00 0.00 0.00 0.00 0.00 0.00 0.00 0.00 0.00 0.00 0.00 0.00 0.00 0.00 0.00 0.00 0.00 0.00 0.00 0.00 0.00 0.00 0.00 0.00 0.00 0.01 0.00 0.00 0.00 0.00 0.00 0.00
0.00 0.00 0.00 0.00 0.00 0.00 0.00 0.00 0.00 0.00 0.00 0.00 0.00 0.00 0.00 0.00 0.00 0.00 0.00 0.00 0.00 0.00 0.00 0.00 0.00 0.00 0.00 0.01 0.01 0.01 0.00 0.00 0.00 0.00 0.00 0.01 0.02 0.01 0.01 0.03 0.02 0.01 0.00
0.00 0.00 0.00 0.00 0.00 0.00 0.00 0.00 0.00 0.00 0.00 0.00 0.00 0.00 0.00 0.00 0.00 0.00 0.00 0.00 0.00 0.00 0.00 0.00 0.00 0.00 0.00 0.01 0.01 0.01 0.01 0.01 0.01 0.01 0.01 0.01 0.05 0.04 0.04 0.11 0.14 0.10 0.04
0.00 0.00 0.00 0.00 0.00 0.00 0.00 0.00 0.00 0.00 0.00 0.00 0.00 0.00 0.00 0.00 0.00 0.00 0.00 0.00 0.00 0.00 0.00 0.01 0.01 0.01 0.00 0.00 0.00 0.00 0.00 0.00 0.01 0.02 0.02 0.02 0.06 0.05 0.10 0.23 0.33 0.28 0.18
0.00 0.00 0.00 0.00 0.00 0.00 0.00 0.00 0.00 0.00 0.00 0.00 0.00 0.00 0.00 0.00 0.01 0.01 0.02 0.01 0.01 0.01 0.01 0.01 0.01 0.01 0.01 0.01 0.01 0.02 0.02 0.01 0.00 0.01 0.01 0.02 0.03 0.05 0.17 0.33 0.43 0.46 0.39
0.00 0.00 0.00 0.00 0.00 0.00 0.00 0.00 0.00 0.00 0.00 0.00 0.00 0.00 0.00 0.00 0.02 0.03 0.05 0.04 0.03 0.03 0.03 0.02 0.01 0.01 0.02 0.02 0.02 0.02 0.03 0.03 0.02 0.02 0.02 0.02 0.04 0.09 0.28 0.39 0.48 0.56 0.59
0.00 0.00 0.00 0.00 0.00 0.00 0.00 0.00 0.00 0.00 0.00 0.00 0.00 0.00 0.01 0.01 0.02 0.03 0.03 0.05 0.07 0.08 0.08 0.05 0.03 0.02 0.02 0.02 0.01 0.01 0.02 0.03 0.02 0.03 0.04 0.04 0.04 0.14 0.28 0.35 0.51 0.61 0.63
0.01 0.01 0.00 0.00 0.00 0.00 0.00 0.00 0.00 0.01 0.00 0.00 0.01 0.01 0.01 0.01 0.01 0.03 0.03 0.05 0.08 0.09 0.09 0.06 0.03 0.04 0.04 0.03 0.04 0.08 0.06 0.03 0.02 0.04 0.03 0.04 0.06 0.16 0.28 0.39 0.49 0.56 0.59
0.01 0.01 0.01 0.00 0.00 0.00 0.00 0.00 0.00 0.00 0.01 0.01 0.01 0.02 0.03 0.06 0.07 0.05 0.08 0.14 0.13 0.14 0.12 0.10 0.08 0.07 0.07 0.09 0.29 0.44 0.13 0.10 0.09 0.08 0.08 0.15 0.23 0.30 0.44 0.46 0.44 0.46 0.45
0.00 0.00 0.00 0.00 0.01 0.01 0.00 0.00 0.00 0.00 0.03 0.03 0.02 0.04 0.09 0.10 0.08 0.07 0.06 0.09 0.10 0.11 0.09 0.17 0.21 0.14 0.16 0.25 0.35 0.38 0.22 0.16 0.11 0.09 0.10 0.20 0.33 0.45 0.60 0.54 0.45 0.40 0.38
0.00 0.01 0.01 0.01 0.01 0.01 0.01 0.01 0.01 0.01 0.02 0.02 0.04 0.03 0.04 0.05 0.04 0.03 0.05 0.05 0.06 0.06 0.11 0.17 0.20 0.17 0.22 0.20 0.26 0.23 0.23 0.26 0.17 0.21 0.21 0.28 0.29 0.34 0.56 0.61 0.47 0.42 0.38
0.00 0.01 0.02 0.02 0.03 0.05 0.06 0.05 0.03 0.01 0.01 0.01 0.02 0.03 0.03 0.05 0.03 0.03 0.03 0.04 0.04 0.06 0.11 0.17 0.19 0.25 0.32 0.28 0.22 0.22 0.24 0.29 0.30 0.41 0.26 0.28 0.23 0.21 0.40 0.48 0.42 0.40 0.37
0.02 0.03 0.05 0.07 0.10 0.12 0.13 0.10 0.08 0.06 0.05 0.04 0.04 0.05 0.06 0.07 0.09 0.11 0.10 0.12 0.11 0.13 0.16 0.23 0.31 0.45 0.46 0.46 0.36 0.35 0.32 0.32 0.36 0.42 0.33 0.30 0.21 0.17 0.24 0.31 0.37 0.36 0.35
0.04 0.06 0.10 0.17 0.23 0.23 0.18 0.14 0.13 0.14 0.14 0.15 0.18 0.22 0.24 0.23 0.26 0.33 0.28 0.24 0.30 0.36 0.38 0.42 0.50 0.59 0.56 0.55 0.43 0.45 0.42 0.37 0.34 0.33 0.32 0.30 0.23 0.18 0.17 0.20 0.28 0.30 0.31
0.07 0.11 0.20 0.30 0.33 0.31 0.29 0.28 0.25 0.25 0.26 0.29 0.33 0.34 0.39 0.45 0.52 0.53 0.41 0.35 0.58 0.65 0.66 0.73 0.74 0.77 0.85 0.84 0.64 0.56 0.51 0.43 0.33 0.29 0.28 0.30 0.30 0.19 0.15 0.18 0.21 0.25 0.32
0.12 0.20 0.35 0.43 0.47 0.50 0.43 0.37 0.36 0.37 0.34 0.32 0.36 0.39 0.48 0.60 0.69 0.76 0.58 0.57 0.86 0.96 0.94 0.95 0.99 1.10 1.10 1.09 0.90 0.67 0.52 0.41 0.30 0.28 0.28 0.25 0.24 0.22 0.20 0.16 0.11 0.18 0.36
0.16 0.24 0.32 0.44 0.56 0.66 0.66 0.59 0.50 0.42 0.35 0.34 0.36 0.39 0.46 0.56 0.77 0.97 0.76 0.81 1.07 1.09 1.05 1.15 1.23 1.32 1.20 1.24 1.11 0.71 0.45 0.32 0.29 0.24 0.22 0.19 0.14 0.11 0.13 0.18 0.23 0.23 0.33
0.12 0.17 0.29 0.45 0.57 0.65 0.73 0.74 0.68 0.53 0.49 0.42 0.41 0.46 0.56 0.66 0.84 1.11 0.96 1.03 1.12 1.06 1.02 1.17 1.27 1.21 1.08 1.40 1.31 0.75 0.39 0.26 0.18 0.10 0.12 0.11 0.07 0.05 0.09 0.16 0.23 0.27 0.27
0.13 0.16 0.21 0.33 0.44 0.50 0.63 0.74 0.82 0.88 0.78 0.69 0.70 0.77 0.80 0.88 0.95 1.07 1.11 1.06 1.09 1.05 0.91 0.94 1.10 1.02 0.81 1.14 1.27 1.12 0.63 0.29 0.15 0.09 0.10 0.10 0.10 0.12 0.14 0.17 0.20 0.28 0.28
0.12 0.12 0.21 0.29 0.37 0.52 0.69 0.85 0.96 1.09 1.04 1.05 1.12 1.20 1.12 1.14 1.12 1.17 1.09 1.05 1.02 1.02 0.86 0.80 0.94 0.98 0.82 0.89 1.18 1.39 0.98 0.49 0.31 0.16 0.16 0.21 0.27 0.29 0.27 0.25 0.26 0.28 0.32
0.16 0.19 0.32 0.38 0.46 0.66 0.91 1.04 1.11 1.27 1.41 1.57 1.78 1.73 1.58 1.44 1.30 1.20 1.04 0.91 0.81 0.81 0.74 0.71 0.82 0.89 0.91 0.75 0.83 0.95 0.95 0.83 0.67 0.35 0.21 0.27 0.40 0.40 0.35 0.32 0.31 0.31 0.36
0.30 0.36 0.56 0.66 0.81 1.03 1.20 1.33 1.44 1.55 1.66 1.67 1.67 1.58 1.46 1.36 1.22 1.09 0.96 0.86 0.79 0.73 0.67 0.65 0.67 0.70 0.72 0.66 0.67 0.69 0.76 0.78 0.73 0.60 0.40 0.40 0.41 0.33 0.29 0.26 0.28 0.36 0.45
0.78 0.75 0.80 0.88 1.03 1.17 1.25 1.33 1.38 1.36 1.34 1.27 1.17 1.07 0.98 0.93 0.84 0.76 0.67 0.59 0.57 0.57 0.57 0.57 0.56 0.56 0.57 0.58 0.60 0.62 0.68 0.75 0.82 0.82 0.68 0.57 0.49 0.40 0.34 0.30 0.31 0.37 0.45

GEFSSE_prec_meanprecacc_042.txt.gz
Total_Precipitation_Accumulation
0.00 0.00 0.02 0.00 0.00 0.00 0.00 0.00 0.00 0.00 0.00 0.01 0.02 0.02 0.00 0.00 0.00 0.00 0.00 0.00 0.00 0.01 0.01 0.00 0.00 0.01 0.01 0.00 0.00 0.00 0.00 0.00 0.00 0.00 0.00 0.01 0.01 0.01 0.01 0.02 0.09 0.14 0.05
0.00 0.00 0.01 0.00 0.00 0.00 0.00 0.00 0.00 0.00 0.00 0.00 0.00 0.00 0.00 0.00 0.00 0.00 0.00 0.00 0.00 0.00 0.00 0.00 0.00 0.00 0.00 0.00 0.00 0.00 0.00 0.00 0.00 0.00 0.00 0.00 0.00 0.00 0.01 0.01 0.08 0.10 0.02
0.00 0.00 0.00 0.00 0.00 0.00 0.00 0.00 0.00 0.00 0.00 0.00 0.00 0.00 0.00 0.00 0.00 0.00 0.00 0.00 0.00 0.00 0.00 0.00 0.00 0.00 0.00 0.00 0.00 0.00 0.00 0.00 0.00 0.00 0.01 0.01 0.00 0.00 0.00 0.00 0.01 0.01 0.01
0.00 0.00 0.00 0.00 0.00 0.00 0.00 0.00 0.00 0.00 0.00 0.00 0.00 0.00 0.00 0.00 0.00 0.00 0.00 0.00 0.00 0.00 0.00 0.00 0.00 0.00 0.00 0.00 0.00 0.00 0.00 0.00 0.00 0.00 0.02 0.05 0.01 0.00 0.00 0.00 0.00 0.00 0.00
0.00 0.00 0.00 0.00 0.00 0.00 0.00 0.00 0.00 0.00 0.00 0.00 0.00 0.00 0.00 0.00 0.00 0.00 0.00 0.00 0.00 0.00 0.00 0.00 0.00 0.00 0.00 0.01 0.01 0.01 0.00 0.00 0.00 0.00 0.01 0.03 0.05 0.02 0.01 0.03 0.02 0.01 0.00
0.00 0.00 0.00 0.00 0.00 0.00 0.00 0.00 0.00 0.00 0.00 0.00 0.00 0.00 0.00 0.00 0.00 0.00 0.00 0.00 0.00 0.00 0.00 0.00 0.00 0.00 0.00 0.01 0.01 0.01 0.01 0.01 0.01 0.01 0.01 0.02 0.10 0.09 0.05 0.12 0.16 0.11 0.04
0.00 0.00 0.00 0.00 0.00 0.00 0.00 0.00 0.00 0.00 0.00 0.00 0.00 0.00 0.00 0.00 0.00 0.00 0.00 0.00 0.00 0.00 0.00 0.01 0.01 0.01 0.00 0.00 0.00 0.01 0.00 0.00 0.01 0.02 0.02 0.02 0.07 0.07 0.11 0.26 0.37 0.32 0.22
0.00 0.00 0.00 0.00 0.00 0.00 0.00 0.00 0.00 0.00 0.00 0.00 0.00 0.00 0.00 0.00 0.01 0.01 0.02 0.01 0.01 0.01 0.01 0.01 0.01 0.01 0.01 0.02 0.02 0.02 0.02 0.01 0.00 0.01 0.01 0.02 0.04 0.05 0.17 0.34 0.46 0.51 0.47
0.00 0.00 0.00 0.00 0.00 0.00 0.00 0.00 0.00 0.00 0.00 0.00 0.00 0.00 0.00 0.00 0.02 0.03 0.05 0.04 0.03 0.03 0.03 0.02 0.01 0.01 0.02 0.03 0.03 0.03 0.03 0.03 0.02 0.02 0.02 0.03 0.05 0.10 0.28 0.40 0.48 0.59 0.64
0.00 0.00 0.00 0.00 0.00 0.00 0.00 0.00 0.00 0.00 0.00 0.00 0.00 0.01 0.01 0.01 0.02 0.04 0.04 0.05 0.07 0.08 0.08 0.06 0.03 0.02 0.02 0.02 0.01 0.01 0.02 0.03 0.02 0.03 0.05 0.04 0.05 0.15 0.30 0.36 0.51 0.61 0.65
0.01 0.01 0.00 0.00 0.00 0.00 0.00 0.00 0.00 0.01 0.01 0.00 0.01 0.01 0.01 0.01 0.03 0.08 0.10 0.12 0.12 0.11 0.10 0.06 0.04 0.04 0.05 0.03 0.04 0.09 0.06 0.03 0.02 0.04 0.03 0.04 0.07 0.19 0.31 0.41 0.50 0.57 0.60
0.01 0.01 0.01 0.00 0.00 0.00 0.00 0.00 0.00 0.01 0.02 0.02 0.03 0.08 0.10 0.15 0.13 0.07 0.14 0.22 0.18 0.18 0.13 0.10 0.10 0.08 0.08 0.10 0.34 0.54 0.16 0.10 0.10 0.08 0.08 0.15 0.24 0.33 0.47 0.48 0.46 0.49 0.47
0.00 0.00 0.00 0.00 0.01 0.01 0.00 0.00 0.00 0.01 0.05 0.05 0.06 0.12 0.21 0.20 0.13 0.09 0.08 0.14 0.20 0.17 0.13 0.22 0.28 0.18 0.20 0.29 0.44 0.50 0.25 0.18 0.12 0.09 0.11 0.22 0.36 0.48 0.62 0.56 0.48 0.43 0.41
0.00 0.01 0.01 0.01 0.01 0.01 0.01 0.01 0.01 0.01 0.03 0.03 0.07 0.07 0.14 0.15 0.09 0.06 0.07 0.08 0.11 0.13 0.22 0.27 0.31 0.25 0.30 0.28 0.34 0.29 0.27 0.28 0.17 0.22 0.23 0.29 0.31 0.35 0.58 0.63 0.50 0.45 0.42
0.00 0.01 0.02 0.02 0.03 0.05 0.06 0.05 0.03 0.02 0.01 0.01 0.03 0.04 0.07 0.12 0.10 0.11 0.12 0.11 0.08 0.11 0.23 0.32 0.30 0.34 0.42 0.40 0.32 0.27 0.28 0.31 0.32 0.45 0.31 0.30 0.24 0.22 0.43 0.51 0.44 0.43 0.40
0.02 0.03 0.05 0.07 0.10 0.12 0.13 0.11 0.08 0.06 0.06 0.05 0.06 0.07 0.10 0.17 0.22 0.25 0.22 0.26 0.23 0.26 0.34 0.43 0.47 0.61 0.60 0.59 0.46 0.42 0.37 0.36 0.40 0.46 0.35 0.34 0.24 0.18 0.26 0.34 0.40 0.40 0.39
0.04 0.06 0.10 0.17 0.23 0.23 0.19 0.15 0.14 0.15 0.16 0.18 0.22 0.26 0.30 0.34 0.41 0.47 0.41 0.39 0.49 0.57 0.60 0.63 0.70 0.80 0.76 0.73 0.58 0.56 0.51 0.45 0.41 0.40 0.35 0.34 0.29 0.22 0.19 0.23 0.32 0.33 0.34
0.07 0.12 0.20 0.31 0.33 0.32 0.31 0.30 0.27 0.26 0.28 0.31 0.36 0.38 0.44 0.52 0.61 0.63 0.49 0.46 0.76 0.83 0.83 0.92 0.94 0.99 1.09 1.08 0.86 0.73 0.66 0.57 0.42 0.37 0.34 0.34 0.33 0.22 0.18 0.22 0.25 0.29 0.36
0.15 0.23 0.36 0.45 0.49 0.54 0.50 0.44 0.40 0.40 0.36 0.33 0.37 0.41 0.50 0.63 0.72 0.81 0.62 0.63 0.94 1.05 1.05 1.05 1.20 1.35 1.32 1.33 1.13 0.91 0.73 0.58 0.42 0.38 0.34 0.29 0.27 0.24 0.22 0.20 0.14 0.21 0.39
0.27 0.33 0.36 0.48 0.62 0.76 0.78 0.66 0.53 0.43 0.35 0.34 0.37 0.40 0.46 0.57 0.78 0.99 0.78 0.83 1.11 1.14 1.10 1.23 1.34 1.46 1.36 1.43 1.30 0.90 0.68 0.49 0.43 0.33 0.28 0.23 0.16 0.14 0.16 0.22 0.27 0.26 0.36
0.22 0.28 0.41 0.58 0.70 0.76 0.83 0.79 0.70 0.53 0.49 0.42 0.41 0.47 0.56 0.66 0.84 1.11 0.96 1.03 1.13 1.08 1.04 1.21 1.32 1.26 1.16 1.53 1.46 0.89 0.51 0.37 0.27 0.17 0.18 0.16 0.12 0.09 0.12 0.20 0.28 0.30 0.29
0.27 0.36 0.47 0.53 0.59 0.62 0.69 0.77 0.83 0.89 0.79 0.69 0.70 0.77 0.80 0.88 0.95 1.07 1.11 1.06 1.09 1.05 0.92 0.95 1.12 1.05 0.84 1.23 1.37 1.22 0.71 0.37 0.23 0.13 0.13 0.13 0.15 0.16 0.17 0.18 0.21 0.30 0.30
0.37 0.43 0.50 0.50 0.52 0.60 0.74 0.88 0.98 1.09 1.04 1.05 1.12 1.20 1.12 1.14 1.12 1.17 1.09 1.05 1.02 1.02 0.86 0.80 0.95 1.00 0.83 0.92 1.24 1.47 1.04 0.53 0.37 0.19 0.21 0.25 0.31 0.36 0.35 0.31 0.29 0.30 0.35
0.46 0.50 0.60 0.62 0.62 0.76 0.98 1.10 1.15 1.29 1.42 1.57 1.78 1.73 1.58 1.44 1.30 1.20 1.04 0.91 0.81 0.81 0.74 0.72 0.83 0.91 0.92 0.76 0.86 1.01 1.01 0.90 0.74 0.40 0.26 0.32 0.47 0.50 0.47 0.42 0.36 0.35 0.41
0.57 0.59 0.74 0.80 0.92 1.12 1.30 1.42 1.51 1.58 1.67 1.67 1.68 1.59 1.46 1.36 1.22 1.09 0.96 0.86 0.79 0.73 0.67 0.65 0.68 0.71 0.74 0.68 0.69 0.72 0.82 0.86 0.81 0.67 0.45 0.46 0.47 0.38 0.36 0.33 0.35 0.44 0.53
0.94 0.88 0.92 1.02 1.16 1.30 1.37 1.45 1.48 1.44 1.40 1.31 1.20 1.09 0.99 0.93 0.84 0.76 0.67 0.59 0.58 0.57 0.58 0.57 0.57 0.58 0.59 0.61 0.63 0.65 0.72 0.80 0.89 0.91 0.75 0.64 0.56 0.48 0.44 0.40 0.41 0.47 0.54

GEFSSE_prec_meanprecacc_048.txt.gz
Total_Precipitation_Accumulation
0.00 0.00 0.02 0.00 0.00 0.00 0.00 0.00 0.00 0.00 0.00 0.01 0.02 0.02 0.00 0.00 0.00 0.00 0.00 0.00 0.01 0.01 0.01 0.00 0.00 0.01 0.01 0.00 0.00 0.00 0.00 0.00 0.00 0.01 0.01 0.01 0.01 0.01 0.02 0.02 0.09 0.14 0.06
0.00 0.00 0.01 0.00 0.00 0.00 0.00 0.00 0.00 0.00 0.00 0.00 0.00 0.01 0.00 0.00 0.00 0.00 0.00 0.00 0.00 0.00 0.00 0.00 0.00 0.00 0.00 0.00 0.00 0.00 0.00 0.00 0.00 0.00 0.01 0.01 0.01 0.01 0.01 0.01 0.08 0.10 0.03
0.00 0.00 0.00 0.00 0.00 0.00 0.00 0.00 0.00 0.00 0.00 0.00 0.00 0.00 0.00 0.00 0.00 0.00 0.00 0.00 0.00 0.00 0.00 0.00 0.00 0.00 0.00 0.00 0.00 0.00 0.00 0.00 0.00 0.00 0.01 0.01 0.00 0.00 0.01 0.00 0.01 0.01 0.01
0.00 0.00 0.00 0.00 0.00 0.00 0.00 0.00 0.00 0.00 0.00 0.00 0.00 0.00 0.00 0.00 0.00 0.00 0.00 0.00 0.00 0.00 0.00 0.00 0.00 0.00 0.00 0.00 0.00 0.00 0.00 0.00 0.00 0.00 0.03 0.09 0.02 0.01 0.01 0.00 0.00 0.00 0.00
0.00 0.00 0.00 0.00 0.00 0.00 0.00 0.00 0.00 0.00 0.00 0.00 0.00 0.00 0.00 0.00 0.00 0.00 0.00 0.00 0.00 0.00 0.00 0.00 0.00 0.00 0.00 0.01 0.01 0.01 0.00 0.00 0.00 0.00 0.03 0.08 0.07 0.03 0.02 0.03 0.02 0.01 0.00
0.00 0.00 0.00 0.00 0.00 0.00 0.00 0.00 0.00 0.00 0.00 0.00 0.00 0.00 0.00 0.00 0.00 0.00 0.00 0.00 0.00 0.00 0.00 0.00 0.00 0.00 0.00 0.01 0.01 0.01 0.01 0.01 0.01 0.01 0.01 0.04 0.11 0.11 0.06 0.12 0.16 0.11 0.04
0.00 0.00 0.00 0.00 0.00 0.00 0.00 0.00 0.00 0.00 0.00 0.00 0.00 0.00 0.00 0.00 0.00 0.00 0.00 0.00 0.00 0.00 0.00 0.01 0.01 0.01 0.00 0.00 0.00 0.01 0.00 0.00 0.01 0.02 0.02 0.03 0.08 0.09 0.13 0.27 0.38 0.32 0.22
0.00 0.00 0.00 0.00 0.00 0.00 0.00 0.00 0.00 0.00 0.00 0.00 0.00 0.00 0.00 0.00 0.01 0.01 0.02 0.01 0.01 0.01 0.01 0.01 0.01 0.01 0.01 0.02 0.02 0.02 0.02 0.01 0.00 0.01 0.01 0.02 0.04 0.08 0.21 0.36 0.47 0.51 0.47
0.00 0.00 0.00 0.00 0.00 0.00 0.00 0.00 0.00 0.00 0.00 0.00 0.00 0.00 0.00 0.00 0.02 0.03 0.05 0.04 0.03 0.03 0.03 0.02 0.01 0.01 0.02 0.03 0.03 0.03 0.03 0.03 0.02 0.02 0.02 0.03 0.05 0.13 0.34 0.44 0.50 0.59 0.64
0.00 0.00 0.00 0.00 0.00 0.00 0.00 0.00 0.00 0.00 0.00 0.00 0.00 0.01 0.01 0.01 0.02 0.04 0.05 0.07 0.09 0.09 0.09 0.06 0.04 0.02 0.03 0.03 0.02 0.01 0.02 0.03 0.02 0.03 0.05 0.05 0.07 0.21 0.38 0.42 0.55 0.64 0.66
0.01 0.01 0.00 0.00 0.00 0.00 0.00 0.00 0.00 0.01 0.01 0.00 0.01 0.01 0.01 0.01 0.03 0.09 0.12 0.16 0.17 0.16 0.13 0.09 0.05 0.05 0.06 0.04 0.05 0.10 0.07 0.03 0.03 0.04 0.03 0.04 0.09 0.26 0.41 0.48 0.55 0.61 0.63
0.01 0.01 0.01 0.00 0.00 0.00 0.00 0.00 0.00 0.01 0.02 0.02 0.03 0.08 0.10 0.15 0.13 0.08 0.16 0.28 0.27 0.28 0.23 0.20 0.19 0.14 0.10 0.11 0.36 0.56 0.18 0.12 0.11 0.08 0.08 0.16 0.28 0.41 0.57 0.54 0.51 0.53 0.50
0.00 0.01 0.01 0.00 0.01 0.01 0.00 0.00 0.00 0.01 0.06 0.05 0.06 0.12 0.22 0.21 0.14 0.11 0.11 0.21 0.30 0.30 0.23 0.36 0.43 0.29 0.28 0.36 0.50 0.56 0.30 0.22 0.14 0.12 0.13 0.23 0.40 0.59 0.75 0.65 0.54 0.47 0.43
0.01 0.01 0.01 0.01 0.01 0.02 0.01 0.01 0.01 0.01 0.03 0.04 0.08 0.10 0.17 0.18 0.12 0.10 0.13 0.14 0.19 0.23 0.35 0.43 0.49 0.46 0.47 0.43 0.48 0.43 0.40 0.41 0.29 0.33 0.31 0.35 0.38 0.47 0.73 0.76 0.59 0.51 0.45
0.01 0.02 0.03 0.03 0.04 0.06 0.06 0.06 0.03 0.03 0.04 0.04 0.07 0.08 0.12 0.17 0.16 0.17 0.19 0.18 0.16 0.23 0.40 0.50 0.48 0.54 0.64 0.61 0.51 0.45 0.47 0.51 0.53 0.66 0.46 0.44 0.40 0.40 0.64 0.71 0.59 0.53 0.47
0.06 0.06 0.07 0.10 0.15 0.16 0.15 0.13 0.11 0.11 0.12 0.11 0.12 0.14 0.16 0.22 0.28 0.31 0.27 0.31 0.27 0.33 0.43 0.54 0.58 0.74 0.75 0.76 0.61 0.57 0.55 0.56 0.60 0.70 0.63 0.62 0.54 0.47 0.52 0.58 0.61 0.55 0.49
0.16 0.16 0.22 0.30 0.35 0.33 0.27 0.21 0.21 0.24 0.26 0.27 0.31 0.34 0.37 0.40 0.46 0.50 0.44 0.41 0.51 0.61 0.65 0.69 0.75 0.88 0.84 0.81 0.65 0.65 0.61 0.55 0.54 0.54 0.55 0.60 0.63 0.58 0.51 0.49 0.52 0.50 0.48
0.30 0.37 0.52 0.70 0.67 0.56 0.49 0.42 0.38 0.40 0.44 0.47 0.50 0.54 0.55 0.59 0.64 0.64 0.51 0.47 0.78 0.86 0.86 0.95 0.97 1.03 1.13 1.13 0.90 0.77 0.71 0.63 0.50 0.48 0.46 0.48 0.54 0.46 0.43 0.48 0.48 0.48 0.55
0.63 0.84 1.12 1.20 1.11 1.05 0.89 0.71 0.60 0.59 0.55 0.54 0.61 0.61 0.63 0.69 0.73 0.81 0.63 0.64 0.96 1.07 1.06 1.07 1.21 1.37 1.35 1.36 1.16 0.93 0.76 0.61 0.47 0.44 0.41 0.38 0.39 0.39 0.38 0.38 0.36 0.42 0.63
1.03 1.34 1.49 1.55 1.52 1.49 1.43 1.15 0.87 0.70 0.58 0.59 0.58 0.56 0.54 0.58 0.78 0.99 0.78 0.84 1.11 1.14 1.10 1.23 1.35 1.47 1.38 1.45 1.32 0.91 0.69 0.50 0.45 0.36 0.32 0.29 0.24 0.24 0.29 0.35 0.42 0.45 0.62
1.22 1.50 1.79 1.85 1.80 1.69 1.64 1.41 1.14 0.80 0.69 0.61 0.52 0.51 0.59 0.67 0.85 1.12 0.97 1.04 1.14 1.08 1.04 1.22 1.33 1.27 1.16 1.54 1.47 0.90 0.51 0.37 0.28 0.18 0.20 0.19 0.15 0.16 0.25 0.36 0.45 0.51 0.51
1.11 1.36 1.62 1.58 1.39 1.26 1.21 1.17 1.11 1.10 0.94 0.79 0.75 0.81 0.83 0.90 0.96 1.08 1.11 1.06 1.09 1.05 0.92 0.95 1.12 1.05 0.84 1.23 1.37 1.22 0.71 0.37 0.23 0.13 0.15 0.15 0.18 0.24 0.29 0.32 0.38 0.50 0.51
0.94 1.05 1.14 1.04 0.91 0.91 1.01 1.09 1.16 1.26 1.17 1.16 1.24 1.28 1.16 1.17 1.15 1.19 1.10 1.05 1.02 1.02 0.86 0.80 0.95 1.00 0.83 0.92 1.24 1.48 1.05 0.53 0.37 0.19 0.22 0.27 0.34 0.42 0.44 0.47 0.50 0.53 0.57
0.77 0.84 0.96 0.97 0.95 1.02 1.23 1.31 1.33 1.44 1.54 1.67 1.88 1.83 1.65 1.49 1.36 1.25 1.07 0.93 0.83 0.82 0.74 0.72 0.83 0.91 0.92 0.76 0.86 1.01 1.02 0.91 0.75 0.40 0.26 0.33 0.48 0.54 0.55 0.60 0.57 0.56 0.61
0.70 0.74 0.93 1.04 1.16 1.36 1.53 1.61 1.68 1.74 1.80 1.79 1.78 1.67 1.55 1.46 1.32 1.18 1.04 0.91 0.82 0.74 0.67 0.65 0.68 0.72 0.74 0.68 0.69 0.73 0.82 0.86 0.82 0.68 0.45 0.46 0.48 0.40 0.40 0.45 0.56 0.71 0.71
1.01 0.95 1.01 1.16 1.32 1.48 1.57 1.64 1.65 1.59 1.54 1.44 1.31 1.19 1.09 1.03 0.95 0.88 0.79 0.69 0.63 0.61 0.60 0.58 0.57 0.58 0.59 0.62 0.64 0.65 0.73 0.80 0.89 0.92 0.76 0.64 0.57 0.50 0.48 0.46 0.52 0.66 0.72

GEFSSE_prec_meanprecacc_054.txt.gz
Total_Precipitation_Accumulation
0.00 0.00 0.02 0.01 0.00 0.00 0.00 0.00 0.00 0.00 0.00 0.01 0.02 0.02 0.00 0.00 0.00 0.00 0.00 0.00 0.01 0.01 0.01 0.01 0.00 0.01 0.01 0.00 0.00 0.00 0.00 0.00 0.01 0.01 0.01 0.02 0.03 0.04 0.06 0.04 0.10 0.15 0.07
0.00 0.00 0.01 0.00 0.00 0.00 0.00 0.00 0.00 0.00 0.00 0.00 0.00 0.01 0.00 0.00 0.00 0.00 0.00 0.00 0.01 0.01 0.00 0.00 0.00 0.00 0.00 0.00 0.00 0.00 0.00 0.00 0.00 0.01 0.01 0.02 0.04 0.08 0.07 0.03 0.09 0.11 0.05
0.00 0.00 0.01 0.00 0.00 0.00 0.00 0.00 0.00 0.00 0.00 0.00 0.00 0.00 0.00 0.00 0.00 0.00 0.00 0.00 0.00 0.00 0.00 0.00 0.00 0.00 0.00 0.00 0.00 0.00 0.00 0.00 0.00 0.01 0.01 0.01 0.02 0.06 0.07 0.02 0.01 0.02 0.02
0.00 0.00 0.00 0.00 0.00 0.00 0.00 0.00 0.00 0.00 0.00 0.00 0.00 0.00 0.00 0.00 0.00 0.00 0.00 0.00 0.00 0.00 0.00 0.00 0.00 0.00 0.00 0.00 0.00 0.00 0.00 0.00 0.00 0.00 0.03 0.09 0.03 0.02 0.04 0.02 0.01 0.01 0.01
0.00 0.00 0.00 0.00 0.00 0.00 0.00 0.00 0.00 0.00 0.00 0.00 0.00 0.00 0.00 0.00 0.01 0.01 0.00 0.00 0.00 0.00 0.00 0.00 0.00 0.00 0.00 0.01 0.01 0.01 0.00 0.00 0.00 0.00 0.03 0.09 0.07 0.04 0.03 0.04 0.02 0.01 0.01
0.00 0.00 0.00 0.00 0.00 0.00 0.00 0.00 0.00 0.00 0.00 0.00 0.00 0.00 0.00 0.00 0.01 0.01 0.00 0.00 0.00 0.00 0.00 0.00 0.00 0.00 0.00 0.01 0.01 0.01 0.01 0.01 0.01 0.02 0.02 0.04 0.12 0.12 0.08 0.14 0.17 0.11 0.04
0.00 0.00 0.00 0.00 0.00 0.00 0.00 0.00 0.00 0.00 0.00 0.00 0.00 0.00 0.00 0.00 0.01 0.01 0.00 0.00 0.00 0.00 0.00 0.01 0.01 0.01 0.00 0.00 0.00 0.01 0.00 0.00 0.01 0.02 0.02 0.04 0.09 0.10 0.16 0.30 0.41 0.34 0.23
0.00 0.00 0.00 0.00 0.00 0.00 0.00 0.00 0.00 0.00 0.00 0.00 0.00 0.00 0.00 0.00 0.01 0.01 0.02 0.01 0.01 0.01 0.01 0.01 0.01 0.01 0.01 0.02 0.02 0.02 0.02 0.01 0.00 0.01 0.01 0.02 0.04 0.09 0.24 0.42 0.53 0.55 0.49
0.00 0.00 0.00 0.00 0.00 0.00 0.00 0.00 0.00 0.00 0.00 0.00 0.00 0.00 0.00 0.01 0.02 0.03 0.05 0.04 0.03 0.03 0.03 0.02 0.01 0.01 0.02 0.03 0.03 0.03 0.03 0.03 0.02 0.02 0.02 0.03 0.06 0.14 0.38 0.50 0.57 0.65 0.69
0.00 0.00 0.00 0.00 0.00 0.00 0.00 0.00 0.00 0.00 0.00 0.00 0.00 0.01 0.01 0.01 0.02 0.04 0.05 0.07 0.09 0.10 0.09 0.07 0.04 0.03 0.03 0.03 0.02 0.02 0.03 0.03 0.02 0.03 0.05 0.05 0.07 0.22 0.41 0.50 0.63 0.71 0.73
0.01 0.01 0.00 0.00 0.00 0.00 0.00 0.00 0.01 0.01 0.01 0.01 0.01 0.01 0.02 0.01 0.03 0.09 0.12 0.17 0.19 0.20 0.19 0.14 0.10 0.08 0.08 0.05 0.06 0.11 0.08 0.04 0.03 0.05 0.03 0.05 0.10 0.28 0.47 0.60 0.69 0.73 0.73
0.01 0.01 0.01 0.01 0.01 0.01 0.00 0.01 0.01 0.01 0.03 0.03 0.04 0.08 0.11 0.16 0.14 0.08 0.18 0.33 0.38 0.44 0.40 0.36 0.34 0.24 0.16 0.13 0.39 0.60 0.19 0.13 0.12 0.09 0.08 0.17 0.29 0.45 0.64 0.66 0.65 0.68 0.64
0.01 0.01 0.01 0.01 0.01 0.01 0.01 0.01 0.01 0.01 0.06 0.06 0.07 0.14 0.24 0.25 0.17 0.14 0.16 0.29 0.42 0.46 0.35 0.50 0.60 0.40 0.35 0.43 0.58 0.62 0.34 0.26 0.17 0.14 0.14 0.25 0.45 0.67 0.86 0.79 0.69 0.64 0.61
0.02 0.02 0.02 0.02 0.02 0.03 0.02 0.02 0.02 0.02 0.05 0.06 0.11 0.14 0.22 0.26 0.21 0.18 0.21 0.21 0.27 0.33 0.47 0.57 0.63 0.59 0.58 0.54 0.61 0.54 0.49 0.49 0.35 0.39 0.34 0.39 0.47 0.59 0.89 0.96 0.78 0.70 0.64
0.04 0.05 0.06 0.05 0.06 0.09 0.10 0.09 0.07 0.08 0.09 0.11 0.16 0.18 0.22 0.29 0.26 0.26 0.27 0.26 0.23 0.31 0.49 0.62 0.60 0.66 0.76 0.73 0.61 0.55 0.58 0.63 0.63 0.73 0.53 0.49 0.49 0.54 0.83 0.94 0.82 0.75 0.68
0.12 0.17 0.22 0.23 0.27 0.28 0.27 0.26 0.24 0.25 0.27 0.27 0.30 0.30 0.31 0.36 0.42 0.42 0.37 0.39 0.34 0.38 0.48 0.62 0.66 0.81 0.81 0.84 0.67 0.62 0.61 0.63 0.67 0.77 0.69 0.67 0.60 0.56 0.67 0.77 0.81 0.77 0.70
0.29 0.38 0.51 0.65 0.73 0.71 0.62 0.51 0.48 0.53 0.57 0.58 0.58 0.59 0.62 0.63 0.66 0.66 0.54 0.49 0.58 0.66 0.68 0.73 0.79 0.90 0.88 0.85 0.68 0.69 0.65 0.59 0.58 0.59 0.59 0.63 0.66 0.63 0.61 0.63 0.69 0.67 0.67
0.46 0.61 0.87 1.20 1.28 1.18 1.08 0.96 0.89 0.87 0.86 0.86 0.86 0.89 0.92 0.88 0.84 0.79 0.61 0.54 0.82 0.88 0.88 0.97 0.99 1.04 1.14 1.14 0.91 0.79 0.73 0.64 0.52 0.50 0.48 0.51 0.56 0.49 0.48 0.58 0.63 0.62 0.72
0.81 1.15 1.62 1.79 1.81 1.82 1.65 1.49 1.37 1.26 1.14 1.06 1.09 1.02 1.01 1.01 0.91 0.94 0.71 0.68 0.98 1.08 1.07 1.08 1.22 1.37 1.35 1.37 1.17 0.94 0.76 0.63 0.48 0.45 0.42 0.40 0.41 0.41 0.41 0.43 0.45 0.52 0.76
1.28 1.74 2.11 2.36 2.49 2.45 2.38 2.12 1.75 1.47 1.25 1.17 1.07 0.95 0.86 0.80 0.93 1.09 0.83 0.87 1.13 1.16 1.11 1.24 1.35 1.47 1.38 1.45 1.32 0.91 0.70 0.51 0.46 0.36 0.32 0.29 0.25 0.26 0.30 0.37 0.46 0.50 0.68
1.54 1.87 2.33 2.60 2.63 2.57 2.57 2.29 1.87 1.48 1.27 1.08 0.90 0.81 0.81 0.84 0.98 1.20 1.01 1.06 1.15 1.09 1.04 1.22 1.33 1.27 1.16 1.54 1.47 0.90 0.51 0.37 0.28 0.18 0.20 0.19 0.16 0.17 0.25 0.36 0.46 0.53 0.53
1.38 1.73 2.02 2.02 1.80 1.67 1.66 1.65 1.53 1.46 1.28 1.09 1.01 1.00 0.96 1.02 1.07 1.15 1.16 1.10 1.10 1.06 0.92 0.95 1.12 1.05 0.84 1.23 1.37 1.22 0.71 0.37 0.23 0.13 0.15 0.15 0.18 0.24 0.29 0.33 0.39 0.50 0.53
1.19 1.34 1.45 1.28 1.12 1.11 1.20 1.29 1.34 1.45 1.37 1.36 1.41 1.44 1.29 1.29 1.26 1.28 1.17 1.09 1.04 1.04 0.87 0.80 0.95 1.00 0.83 0.92 1.24 1.48 1.05 0.53 0.37 0.19 0.22 0.27 0.34 0.42 0.44 0.47 0.50 0.53 0.58
0.95 1.02 1.16 1.12 1.07 1.14 1.36 1.45 1.47 1.59 1.69 1.84 2.05 1.99 1.83 1.65 1.53 1.40 1.17 1.00 0.88 0.85 0.77 0.73 0.83 0.91 0.92 0.76 0.86 1.01 1.02 0.91 0.75 0.40 0.26 0.33 0.48 0.54 0.55 0.60 0.57 0.56 0.62
0.82 0.86 1.05 1.16 1.27 1.47 1.64 1.72 1.80 1.88 1.93 1.92 1.93 1.84 1.74 1.65 1.51 1.34 1.17 1.02 0.90 0.80 0.72 0.68 0.69 0.72 0.74 0.68 0.69 0.73 0.82 0.86 0.82 0.68 0.45 0.46 0.48 0.40 0.40 0.45 0.56 0.71 0.71
1.07 0.99 1.04 1.20 1.38 1.54 1.62 1.70 1.72 1.68 1.64 1.54 1.43 1.32 1.24 1.21 1.15 1.06 0.95 0.83 0.75 0.70 0.68 0.65 0.62 0.60 0.60 0.62 0.64 0.65 0.73 0.80 0.89 0.93 0.76 0.64 0.57 0.50 0.48 0.46 0.52 0.67 0.72

GEFSSE_prec_meanprecacc_060.txt.gz
Total_Precipitation_Accumulation
0.00 0.00 0.02 0.01 0.00 0.00 0.00 0.00 0.00 0.00 0.00 0.01 0.02 0.02 0.00 0.00 0.00 0.00 0.00 0.00 0.01 0.01 0.01 0.01 0.01 0.01 0.01 0.01 0.01 0.01 0.01 0.00 0.01 0.01 0.02 0.02 0.04 0.05 0.09 0.06 0.12 0.16 0.08
0.00 0.00 0.02 0.01 0.00 0.00 0.00 0.00 0.00 0.00 0.00 0.00 0.00 0.01 0.00 0.00 0.00 0.00 0.00 0.01 0.01 0.01 0.01 0.01 0.01 0.01 0.01 0.01 0.01 0.01 0.00 0.00 0.00 0.01 0.01 0.02 0.06 0.11 0.11 0.04 0.11 0.14 0.06
0.00 0.00 0.01 0.01 0.00 0.00 0.00 0.00 0.00 0.00 0.00 0.00 0.00 0.00 0.00 0.00 0.00 0.00 0.00 0.01 0.01 0.01 0.00 0.00 0.00 0.00 0.00 0.00 0.00 0.00 0.00 0.00 0.01 0.01 0.02 0.03 0.03 0.08 0.11 0.04 0.03 0.04 0.04
0.00 0.00 0.00 0.01 0.00 0.00 0.00 0.00 0.00 0.00 0.00 0.00 0.00 0.00 0.00 0.00 0.00 0.01 0.01 0.01 0.01 0.01 0.00 0.00 0.00 0.00 0.00 0.00 0.00 0.00 0.00 0.00 0.01 0.01 0.05 0.10 0.03 0.03 0.06 0.05 0.04 0.04 0.04
0.00 0.00 0.00 0.00 0.00 0.00 0.00 0.00 0.00 0.00 0.00 0.00 0.00 0.00 0.00 0.01 0.01 0.01 0.01 0.01 0.01 0.01 0.00 0.00 0.00 0.00 0.00 0.01 0.02 0.01 0.00 0.00 0.00 0.01 0.03 0.09 0.09 0.05 0.04 0.06 0.05 0.04 0.04
0.00 0.00 0.00 0.00 0.00 0.00 0.00 0.00 0.00 0.00 0.00 0.01 0.00 0.00 0.00 0.01 0.01 0.01 0.01 0.01 0.01 0.01 0.00 0.01 0.00 0.00 0.00 0.01 0.01 0.01 0.01 0.01 0.01 0.02 0.02 0.04 0.12 0.12 0.09 0.15 0.18 0.14 0.07
0.00 0.00 0.00 0.00 0.00 0.00 0.00 0.00 0.00 0.01 0.00 0.00 0.00 0.00 0.00 0.00 0.01 0.01 0.01 0.00 0.01 0.01 0.00 0.01 0.01 0.01 0.01 0.00 0.00 0.01 0.00 0.00 0.02 0.03 0.03 0.04 0.09 0.10 0.17 0.32 0.43 0.36 0.25
0.00 0.00 0.00 0.01 0.00 0.00 0.00 0.00 0.00 0.00 0.00 0.00 0.00 0.00 0.00 0.00 0.01 0.02 0.02 0.01 0.01 0.01 0.02 0.01 0.01 0.01 0.01 0.02 0.02 0.02 0.02 0.01 0.01 0.01 0.02 0.03 0.05 0.09 0.26 0.45 0.56 0.57 0.51
0.00 0.00 0.00 0.00 0.00 0.00 0.00 0.00 0.00 0.00 0.00 0.00 0.00 0.01 0.01 0.01 0.02 0.04 0.05 0.05 0.04 0.03 0.04 0.02 0.01 0.01 0.02 0.03 0.03 0.03 0.03 0.03 0.02 0.02 0.02 0.04 0.06 0.15 0.41 0.58 0.64 0.70 0.72
0.00 0.00 0.00 0.01 0.00 0.00 0.00 0.00 0.00 0.00 0.01 0.00 0.01 0.01 0.01 0.01 0.03 0.04 0.05 0.07 0.10 0.10 0.10 0.08 0.05 0.03 0.04 0.04 0.02 0.02 0.03 0.04 0.02 0.03 0.05 0.05 0.07 0.23 0.46 0.61 0.77 0.83 0.80
0.01 0.01 0.01 0.01 0.01 0.01 0.01 0.01 0.01 0.02 0.02 0.01 0.02 0.02 0.02 0.02 0.03 0.09 0.13 0.18 0.20 0.21 0.20 0.16 0.12 0.12 0.12 0.07 0.07 0.12 0.10 0.04 0.03 0.05 0.04 0.05 0.10 0.29 0.51 0.68 0.83 0.88 0.85
0.01 0.01 0.01 0.01 0.02 0.02 0.01 0.02 0.02 0.02 0.04 0.04 0.05 0.09 0.12 0.17 0.15 0.09 0.18 0.34 0.39 0.47 0.43 0.40 0.41 0.31 0.21 0.16 0.44 0.66 0.22 0.14 0.14 0.10 0.09 0.17 0.30 0.45 0.66 0.71 0.74 0.78 0.76
0.01 0.01 0.01 0.02 0.03 0.03 0.02 0.02 0.03 0.03 0.09 0.09 0.09 0.16 0.27 0.27 0.19 0.15 0.17 0.31 0.44 0.49 0.40 0.57 0.70 0.47 0.43 0.55 0.73 0.74 0.39 0.33 0.21 0.16 0.16 0.27 0.47 0.69 0.88 0.81 0.74 0.70 0.70
0.02 0.02 0.02 0.02 0.03 0.04 0.04 0.04 0.05 0.06 0.09 0.10 0.15 0.18 0.27 0.30 0.25 0.22 0.25 0.26 0.31 0.38 0.54 0.67 0.76 0.71 0.72 0.70 0.78 0.68 0.59 0.57 0.40 0.43 0.39 0.42 0.51 0.63 0.93 0.99 0.82 0.75 0.71
0.04 0.06 0.06 0.05 0.07 0.11 0.13 0.14 0.12 0.13 0.16 0.18 0.22 0.25 0.29 0.38 0.35 0.35 0.34 0.34 0.31 0.40 0.58 0.74 0.74 0.81 0.90 0.88 0.77 0.70 0.71 0.73 0.71 0.81 0.59 0.54 0.55 0.61 0.89 0.99 0.88 0.80 0.73
0.14 0.20 0.25 0.25 0.29 0.32 0.33 0.33 0.30 0.31 0.34 0.34 0.38 0.38 0.41 0.48 0.53 0.53 0.46 0.48 0.43 0.48 0.58 0.74 0.79 0.97 0.96 0.98 0.77 0.72 0.73 0.77 0.77 0.85 0.76 0.74 0.64 0.61 0.73 0.83 0.88 0.84 0.77
0.32 0.43 0.58 0.71 0.78 0.77 0.69 0.58 0.55 0.60 0.64 0.64 0.65 0.68 0.73 0.76 0.79 0.78 0.66 0.60 0.69 0.77 0.80 0.85 0.92 1.04 0.99 0.94 0.75 0.78 0.75 0.69 0.65 0.66 0.65 0.69 0.70 0.66 0.65 0.67 0.75 0.74 0.74
0.50 0.67 0.96 1.31 1.38 1.29 1.16 1.03 0.95 0.94 0.95 0.95 0.96 1.02 1.07 1.07 1.03 0.95 0.75 0.68 0.95 1.00 1.00 1.07 1.09 1.14 1.23 1.22 0.98 0.86 0.81 0.71 0.57 0.55 0.52 0.55 0.59 0.52 0.52 0.62 0.67 0.67 0.76
0.84 1.22 1.72 1.91 1.97 1.98 1.76 1.58 1.47 1.40 1.30 1.25 1.31 1.23 1.24 1.29 1.20 1.17 0.88 0.81 1.09 1.20 1.16 1.13 1.28 1.44 1.41 1.42 1.20 0.98 0.80 0.66 0.52 0.48 0.44 0.41 0.43 0.44 0.44 0.46 0.46 0.54 0.78
1.30 1.80 2.18 2.42 2.58 2.55 2.50 2.27 1.93 1.69 1.48 1.45 1.41 1.27 1.17 1.11 1.19 1.35 1.03 0.99 1.22 1.24 1.18 1.29 1.41 1.53 1.42 1.48 1.34 0.92 0.71 0.51 0.46 0.37 0.33 0.30 0.26 0.27 0.31 0.39 0.48 0.50 0.69
1.56 1.91 2.38 2.67 2.74 2.72 2.74 2.46 2.06 1.70 1.53 1.40 1.29 1.19 1.17 1.19 1.27 1.48 1.23 1.20 1.25 1.15 1.09 1.27 1.38 1.31 1.19 1.56 1.48 0.90 0.51 0.37 0.28 0.18 0.20 0.19 0.16 0.17 0.25 0.38 0.48 0.54 0.54
1.40 1.77 2.11 2.16 1.98 1.86 1.84 1.82 1.69 1.62 1.48 1.35 1.31 1.33 1.28 1.30 1.33 1.38 1.33 1.22 1.19 1.12 0.97 0.99 1.17 1.08 0.86 1.25 1.38 1.23 0.71 0.37 0.23 0.13 0.15 0.15 0.18 0.24 0.30 0.33 0.39 0.51 0.54
1.21 1.37 1.50 1.39 1.27 1.24 1.33 1.43 1.48 1.59 1.51 1.50 1.56 1.60 1.46 1.47 1.44 1.48 1.35 1.20 1.12 1.10 0.92 0.85 0.99 1.03 0.85 0.94 1.25 1.48 1.05 0.53 0.37 0.19 0.22 0.27 0.34 0.42 0.44 0.47 0.50 0.54 0.59
0.97 1.05 1.20 1.18 1.13 1.21 1.43 1.52 1.56 1.70 1.82 1.96 2.15 2.09 1.93 1.76 1.62 1.52 1.32 1.13 0.96 0.93 0.83 0.78 0.86 0.93 0.95 0.77 0.87 1.02 1.02 0.91 0.75 0.40 0.26 0.33 0.48 0.54 0.55 0.60 0.57 0.56 0.62
0.83 0.87 1.06 1.18 1.31 1.50 1.68 1.78 1.87 1.95 2.03 2.03 2.05 1.95 1.83 1.74 1.60 1.43 1.27 1.11 0.99 0.88 0.79 0.75 0.73 0.74 0.77 0.70 0.71 0.74 0.83 0.86 0.82 0.68 0.45 0.46 0.48 0.40 0.40 0.45 0.56 0.71 0.71
1.07 1.00 1.05 1.21 1.39 1.55 1.64 1.72 1.74 1.72 1.69 1.60 1.49 1.38 1.30 1.26 1.21 1.14 1.05 0.92 0.84 0.81 0.78 0.73 0.68 0.65 0.64 0.66 0.67 0.67 0.74 0.81 0.90 0.93 0.76 0.65 0.57 0.50 0.48 0.46 0.52 0.67 0.72

GEFSSE_prec_meanprecacc_066.txt.gz
Total_Precipitation_Accumulation
0.00 0.00 0.02 0.01 0.00 0.00 0.00 0.00 0.00 0.00 0.01 0.01 0.02 0.02 0.00 0.00 0.00 0.00 0.00 0.01 0.01 0.01 0.02 0.01 0.01 0.02 0.01 0.01 0.02 0.02 0.02 0.01 0.01 0.01 0.02 0.02 0.04 0.06 0.10 0.09 0.18 0.20 0.09
0.00 0.00 0.02 0.01 0.00 0.00 0.00 0.00 0.00 0.00 0.00 0.00 0.01 0.01 0.00 0.00 0.00 0.00 0.00 0.01 0.01 0.01 0.01 0.01 0.01 0.01 0.01 0.01 0.01 0.01 0.01 0.00 0.01 0.01 0.02 0.02 0.06 0.11 0.12 0.08 0.19 0.18 0.07
0.00 0.00 0.01 0.01 0.00 0.00 0.00 0.00 0.00 0.00 0.00 0.00 0.00 0.00 0.01 0.00 0.00 0.00 0.01 0.01 0.01 0.01 0.01 0.01 0.01 0.01 0.00 0.00 0.00 0.00 0.00 0.00 0.01 0.02 0.06 0.07 0.03 0.08 0.12 0.10 0.10 0.05 0.04
0.00 0.00 0.00 0.01 0.00 0.00 0.00 0.00 0.00 0.00 0.00 0.00 0.01 0.01 0.01 0.01 0.01 0.01 0.01 0.01 0.01 0.01 0.01 0.01 0.00 0.00 0.00 0.00 0.00 0.00 0.00 0.00 0.01 0.03 0.18 0.18 0.04 0.03 0.06 0.07 0.06 0.05 0.05
0.00 0.00 0.00 0.00 0.00 0.00 0.00 0.00 0.01 0.01 0.01 0.01 0.01 0.01 0.01 0.01 0.01 0.01 0.01 0.01 0.01 0.01 0.01 0.00 0.00 0.00 0.00 0.01 0.02 0.01 0.00 0.00 0.01 0.04 0.10 0.14 0.12 0.06 0.05 0.06 0.06 0.05 0.07
0.00 0.00 0.00 0.00 0.00 0.00 0.00 0.00 0.01 0.01 0.01 0.01 0.01 0.01 0.01 0.01 0.01 0.01 0.01 0.01 0.01 0.01 0.00 0.01 0.00 0.00 0.00 0.01 0.02 0.01 0.01 0.01 0.02 0.04 0.03 0.06 0.15 0.13 0.09 0.16 0.19 0.14 0.09
0.00 0.00 0.00 0.00 0.00 0.00 0.00 0.01 0.01 0.01 0.01 0.01 0.01 0.01 0.01 0.01 0.01 0.01 0.01 0.01 0.01 0.01 0.01 0.01 0.01 0.01 0.01 0.01 0.01 0.01 0.00 0.00 0.03 0.05 0.04 0.05 0.10 0.11 0.17 0.32 0.43 0.36 0.26
0.00 0.00 0.00 0.01 0.00 0.00 0.00 0.00 0.01 0.01 0.01 0.01 0.01 0.01 0.01 0.01 0.01 0.02 0.03 0.02 0.01 0.02 0.02 0.01 0.01 0.02 0.02 0.02 0.02 0.02 0.02 0.01 0.01 0.01 0.02 0.05 0.06 0.09 0.26 0.46 0.57 0.58 0.52
0.00 0.00 0.00 0.00 0.00 0.00 0.00 0.00 0.01 0.01 0.01 0.01 0.01 0.01 0.01 0.01 0.02 0.04 0.05 0.05 0.04 0.03 0.04 0.03 0.01 0.01 0.02 0.03 0.03 0.03 0.03 0.03 0.03 0.03 0.02 0.04 0.06 0.15 0.42 0.59 0.66 0.71 0.73
0.00 0.00 0.00 0.01 0.00 0.00 0.00 0.00 0.00 0.01 0.01 0.01 0.01 0.01 0.01 0.01 0.03 0.04 0.05 0.07 0.10 0.10 0.10 0.08 0.05 0.04 0.04 0.04 0.03 0.02 0.03 0.04 0.02 0.03 0.06 0.05 0.08 0.23 0.46 0.62 0.79 0.86 0.83
0.01 0.01 0.01 0.01 0.01 0.01 0.01 0.01 0.02 0.02 0.02 0.02 0.02 0.02 0.02 0.02 0.03 0.10 0.14 0.18 0.20 0.22 0.21 0.17 0.13 0.13 0.13 0.08 0.08 0.13 0.10 0.04 0.03 0.05 0.04 0.05 0.11 0.29 0.51 0.69 0.84 0.91 0.88
0.01 0.01 0.01 0.01 0.02 0.02 0.01 0.02 0.03 0.03 0.05 0.04 0.06 0.10 0.13 0.18 0.15 0.09 0.20 0.36 0.41 0.48 0.44 0.41 0.42 0.33 0.22 0.18 0.52 0.75 0.24 0.15 0.14 0.10 0.09 0.18 0.30 0.46 0.66 0.71 0.75 0.80 0.79
0.01 0.01 0.01 0.02 0.03 0.03 0.03 0.03 0.03 0.04 0.12 0.11 0.11 0.19 0.31 0.31 0.21 0.16 0.19 0.35 0.47 0.51 0.41 0.60 0.73 0.49 0.47 0.62 0.90 0.92 0.45 0.38 0.23 0.17 0.17 0.28 0.48 0.70 0.89 0.82 0.74 0.71 0.72
0.02 0.02 0.03 0.02 0.04 0.05 0.06 0.06 0.06 0.07 0.12 0.14 0.22 0.26 0.35 0.38 0.31 0.27 0.30 0.30 0.38 0.45 0.60 0.73 0.85 0.80 0.84 0.83 0.96 0.83 0.68 0.64 0.43 0.46 0.45 0.51 0.58 0.67 0.95 1.00 0.83 0.76 0.72
0.05 0.06 0.08 0.07 0.10 0.15 0.19 0.20 0.16 0.16 0.19 0.21 0.29 0.33 0.39 0.49 0.45 0.45 0.44 0.42 0.37 0.48 0.69 0.87 0.85 0.94 1.06 1.03 0.92 0.86 0.84 0.81 0.77 0.87 0.73 0.74 0.71 0.70 0.93 1.02 0.89 0.81 0.75
0.17 0.25 0.30 0.31 0.37 0.43 0.44 0.43 0.38 0.35 0.38 0.37 0.42 0.44 0.50 0.60 0.68 0.68 0.60 0.61 0.52 0.57 0.69 0.87 0.94 1.18 1.15 1.15 0.90 0.86 0.87 0.91 0.87 0.93 0.89 0.97 0.84 0.72 0.79 0.87 0.90 0.87 0.80
0.38 0.52 0.66 0.79 0.89 0.89 0.82 0.71 0.65 0.65 0.68 0.68 0.72 0.77 0.86 0.89 0.94 0.93 0.81 0.75 0.83 0.92 0.96 1.01 1.08 1.23 1.17 1.08 0.88 0.90 0.89 0.81 0.75 0.76 0.77 0.89 0.90 0.76 0.71 0.72 0.78 0.78 0.79
0.53 0.71 1.01 1.35 1.46 1.41 1.31 1.17 1.07 1.03 1.01 1.01 1.02 1.10 1.17 1.18 1.17 1.12 0.91 0.86 1.15 1.20 1.19 1.25 1.26 1.30 1.38 1.36 1.12 0.97 0.93 0.84 0.67 0.65 0.60 0.65 0.73 0.61 0.64 0.69 0.73 0.71 0.80
0.85 1.24 1.75 1.94 2.01 2.05 1.86 1.68 1.57 1.49 1.38 1.32 1.38 1.32 1.36 1.42 1.33 1.32 1.06 1.02 1.32 1.43 1.38 1.30 1.46 1.64 1.59 1.59 1.33 1.08 0.90 0.76 0.60 0.55 0.52 0.47 0.50 0.51 0.53 0.54 0.51 0.58 0.82
1.31 1.81 2.21 2.46 2.62 2.61 2.56 2.35 2.01 1.77 1.56 1.53 1.49 1.37 1.29 1.25 1.35 1.52 1.23 1.22 1.46 1.46 1.39 1.49 1.63 1.76 1.61 1.63 1.44 1.00 0.78 0.57 0.52 0.42 0.37 0.33 0.29 0.29 0.33 0.44 0.56 0.54 0.72
1.56 1.91 2.39 2.69 2.76 2.75 2.76 2.49 2.11 1.75 1.58 1.46 1.36 1.29 1.29 1.33 1.46 1.72 1.48 1.46 1.51 1.37 1.31 1.51 1.62 1.53 1.38 1.73 1.62 0.98 0.57 0.42 0.32 0.21 0.22 0.20 0.16 0.17 0.26 0.41 0.54 0.59 0.60
1.40 1.77 2.11 2.17 1.99 1.87 1.86 1.84 1.72 1.65 1.51 1.38 1.34 1.38 1.36 1.40 1.47 1.57 1.56 1.47 1.45 1.39 1.23 1.25 1.44 1.31 1.03 1.41 1.51 1.31 0.78 0.42 0.28 0.17 0.16 0.16 0.18 0.24 0.30 0.34 0.42 0.55 0.59
1.21 1.37 1.51 1.39 1.27 1.25 1.34 1.45 1.50 1.61 1.54 1.53 1.60 1.64 1.51 1.53 1.53 1.60 1.49 1.35 1.30 1.29 1.13 1.06 1.19 1.22 1.01 1.08 1.37 1.57 1.12 0.59 0.41 0.22 0.23 0.27 0.34 0.42 0.44 0.47 0.51 0.54 0.60
0.97 1.05 1.20 1.18 1.13 1.21 1.44 1.54 1.58 1.72 1.84 1.99 2.19 2.13 1.97 1.80 1.68 1.60 1.42 1.25 1.09 1.07 1.01 0.95 1.06 1.12 1.11 0.90 1.00 1.10 1.06 0.97 0.81 0.45 0.28 0.33 0.48 0.54 0.55 0.60 0.57 0.56 0.62
0.83 0.87 1.06 1.19 1.31 1.51 1.70 1.79 1.88 1.96 2.04 2.04 2.06 1.98 1.87 1.78 1.65 1.49 1.35 1.22 1.11 1.02 0.94 0.91 0.92 0.93 0.94 0.84 0.85 0.86 0.92 0.93 0.86 0.73 0.50 0.48 0.49 0.40 0.40 0.45 0.56 0.71 0.71
1.07 1.00 1.05 1.22 1.41 1.58 1.67 1.74 1.77 1.74 1.70 1.61 1.50 1.39 1.32 1.28 1.23 1.17 1.09 0.98 0.93 0.92 0.90 0.86 0.83 0.82 0.83 0.83 0.82 0.83 0.89 0.93 0.97 0.98 0.81 0.69 0.60 0.50 0.48 0.46 0.52 0.67 0.72

GEFSSE_prec_meanprecacc_072.txt.gz
Total_Precipitation_Accumulation
0.00 0.00 0.02 0.01 0.00 0.00 0.00 0.00 0.00 0.00 0.01 0.01 0.02 0.02 0.00 0.00 0.00 0.00 0.00 0.01 0.01 0.02 0.02 0.02 0.02 0.02 0.02 0.03 0.03 0.03 0.02 0.02 0.02 0.03 0.03 0.03 0.04 0.06 0.12 0.12 0.21 0.22 0.11
0.00 0.00 0.02 0.01 0.00 0.00 0.00 0.00 0.00 0.00 0.00 0.00 0.01 0.01 0.00 0.00 0.00 0.00 0.00 0.01 0.01 0.01 0.01 0.02 0.02 0.01 0.01 0.01 0.02 0.01 0.01 0.01 0.02 0.03 0.03 0.03 0.06 0.12 0.14 0.11 0.22 0.19 0.08
0.00 0.00 0.01 0.01 0.00 0.00 0.00 0.00 0.00 0.00 0.01 0.00 0.00 0.00 0.01 0.01 0.00 0.00 0.01 0.01 0.01 0.01 0.01 0.01 0.01 0.01 0.00 0.00 0.00 0.00 0.00 0.01 0.02 0.04 0.07 0.07 0.04 0.10 0.14 0.12 0.12 0.06 0.06
0.00 0.00 0.00 0.01 0.00 0.00 0.00 0.00 0.00 0.01 0.01 0.01 0.01 0.01 0.01 0.01 0.01 0.01 0.01 0.01 0.01 0.01 0.01 0.01 0.01 0.00 0.00 0.00 0.00 0.00 0.00 0.01 0.02 0.05 0.20 0.19 0.04 0.04 0.08 0.08 0.07 0.06 0.06
0.00 0.00 0.00 0.00 0.00 0.00 0.00 0.01 0.01 0.01 0.01 0.01 0.01 0.01 0.01 0.01 0.01 0.01 0.01 0.01 0.01 0.01 0.01 0.00 0.00 0.00 0.00 0.01 0.02 0.01 0.00 0.00 0.02 0.06 0.13 0.15 0.13 0.07 0.05 0.07 0.06 0.06 0.07
0.00 0.00 0.00 0.00 0.00 0.00 0.00 0.01 0.01 0.01 0.01 0.01 0.01 0.01 0.01 0.02 0.01 0.02 0.01 0.01 0.01 0.01 0.01 0.01 0.01 0.00 0.00 0.01 0.02 0.01 0.01 0.01 0.02 0.06 0.07 0.09 0.16 0.13 0.09 0.16 0.19 0.15 0.09
0.00 0.00 0.00 0.00 0.00 0.00 0.00 0.01 0.01 0.01 0.01 0.01 0.01 0.01 0.01 0.01 0.02 0.02 0.01 0.01 0.01 0.01 0.01 0.01 0.01 0.01 0.01 0.01 0.01 0.01 0.00 0.01 0.03 0.07 0.07 0.09 0.12 0.12 0.17 0.32 0.43 0.37 0.26
0.00 0.00 0.00 0.01 0.00 0.00 0.00 0.01 0.01 0.01 0.01 0.01 0.01 0.01 0.01 0.01 0.02 0.02 0.03 0.02 0.02 0.02 0.02 0.02 0.01 0.02 0.02 0.02 0.02 0.02 0.02 0.01 0.01 0.03 0.05 0.08 0.07 0.11 0.27 0.46 0.57 0.58 0.52
0.00 0.00 0.00 0.00 0.00 0.00 0.00 0.01 0.01 0.01 0.01 0.01 0.01 0.01 0.01 0.01 0.03 0.04 0.06 0.05 0.04 0.04 0.04 0.03 0.02 0.02 0.02 0.03 0.03 0.03 0.03 0.03 0.03 0.04 0.05 0.07 0.09 0.17 0.43 0.60 0.66 0.71 0.73
0.00 0.00 0.00 0.01 0.00 0.00 0.00 0.01 0.01 0.01 0.01 0.01 0.01 0.01 0.01 0.01 0.03 0.05 0.06 0.08 0.11 0.11 0.11 0.08 0.05 0.04 0.04 0.04 0.03 0.02 0.03 0.04 0.02 0.04 0.07 0.08 0.13 0.28 0.49 0.62 0.79 0.86 0.83
0.01 0.01 0.01 0.01 0.01 0.01 0.01 0.01 0.02 0.02 0.02 0.02 0.02 0.02 0.03 0.02 0.03 0.11 0.15 0.20 0.22 0.24 0.23 0.19 0.15 0.14 0.14 0.08 0.09 0.14 0.10 0.04 0.03 0.05 0.05 0.07 0.16 0.36 0.56 0.71 0.85 0.92 0.89
0.05 0.04 0.04 0.03 0.02 0.02 0.02 0.03 0.03 0.03 0.05 0.04 0.06 0.10 0.13 0.18 0.15 0.10 0.21 0.40 0.46 0.53 0.50 0.45 0.45 0.35 0.24 0.18 0.53 0.76 0.24 0.15 0.14 0.10 0.09 0.19 0.34 0.52 0.72 0.75 0.77 0.81 0.80
0.17 0.14 0.08 0.05 0.05 0.05 0.05 0.04 0.04 0.05 0.12 0.12 0.12 0.20 0.32 0.31 0.23 0.19 0.22 0.41 0.55 0.62 0.50 0.68 0.80 0.53 0.51 0.64 0.92 0.94 0.47 0.39 0.23 0.17 0.18 0.30 0.51 0.77 0.97 0.88 0.78 0.74 0.74
0.26 0.20 0.14 0.11 0.10 0.11 0.13 0.11 0.11 0.12 0.17 0.19 0.25 0.28 0.39 0.41 0.34 0.31 0.36 0.39 0.48 0.57 0.73 0.87 0.98 0.90 0.92 0.90 1.02 0.88 0.71 0.67 0.46 0.49 0.48 0.57 0.66 0.79 1.11 1.13 0.91 0.82 0.76
0.22 0.16 0.18 0.20 0.24 0.28 0.30 0.30 0.27 0.27 0.28 0.31 0.40 0.43 0.47 0.57 0.53 0.51 0.50 0.51 0.49 0.63 0.87 1.06 1.06 1.13 1.23 1.17 1.02 0.95 0.92 0.89 0.86 0.96 0.84 0.90 0.87 0.90 1.16 1.20 1.02 0.88 0.80
0.36 0.41 0.45 0.47 0.55 0.60 0.60 0.55 0.48 0.45 0.48 0.48 0.54 0.56 0.61 0.74 0.81 0.79 0.71 0.73 0.64 0.71 0.85 1.06 1.18 1.44 1.40 1.35 1.06 0.99 1.01 1.05 0.99 1.06 1.07 1.19 1.08 0.97 1.08 1.09 1.05 0.97 0.87
0.55 0.70 0.81 0.94 1.05 1.09 1.02 0.88 0.80 0.81 0.82 0.83 0.86 0.89 1.01 1.09 1.14 1.10 0.95 0.86 0.92 1.02 1.09 1.17 1.28 1.49 1.43 1.31 1.05 1.06 1.07 0.99 0.88 0.88 0.94 1.07 1.06 0.94 0.92 0.92 0.93 0.91 0.89
0.66 0.83 1.13 1.49 1.60 1.54 1.46 1.33 1.24 1.19 1.15 1.14 1.16 1.22 1.30 1.36 1.38 1.32 1.08 0.97 1.25 1.32 1.31 1.39 1.42 1.49 1.57 1.57 1.30 1.14 1.09 0.99 0.83 0.81 0.79 0.81 0.85 0.70 0.74 0.84 0.90 0.87 0.94
0.92 1.31 1.83 2.02 2.09 2.11 1.93 1.76 1.64 1.58 1.47 1.40 1.46 1.40 1.44 1.53 1.48 1.48 1.20 1.11 1.40 1.54 1.50 1.42 1.60 1.79 1.74 1.73 1.49 1.24 1.02 0.86 0.71 0.67 0.68 0.65 0.62 0.60 0.61 0.63 0.64 0.71 0.94
1.36 1.85 2.24 2.49 2.66 2.65 2.60 2.39 2.06 1.81 1.60 1.57 1.54 1.43 1.35 1.31 1.41 1.60 1.32 1.31 1.58 1.63 1.58 1.67 1.80 1.95 1.80 1.82 1.62 1.16 0.92 0.68 0.62 0.51 0.45 0.46 0.40 0.37 0.40 0.52 0.63 0.60 0.80
1.58 1.93 2.41 2.72 2.79 2.77 2.79 2.51 2.13 1.77 1.60 1.48 1.38 1.31 1.31 1.36 1.49 1.75 1.53 1.53 1.60 1.52 1.50 1.68 1.80 1.73 1.58 1.95 1.86 1.17 0.71 0.54 0.45 0.30 0.29 0.28 0.24 0.24 0.33 0.49 0.60 0.64 0.63
1.41 1.78 2.12 2.17 2.00 1.87 1.87 1.85 1.73 1.66 1.52 1.38 1.34 1.38 1.36 1.41 1.48 1.59 1.60 1.53 1.54 1.51 1.37 1.44 1.69 1.56 1.27 1.66 1.79 1.56 0.95 0.54 0.37 0.25 0.23 0.22 0.23 0.30 0.36 0.40 0.48 0.61 0.64
1.21 1.37 1.51 1.39 1.27 1.25 1.34 1.45 1.51 1.62 1.54 1.54 1.60 1.65 1.51 1.53 1.54 1.61 1.52 1.38 1.33 1.35 1.22 1.22 1.42 1.48 1.28 1.32 1.61 1.82 1.33 0.74 0.50 0.31 0.32 0.35 0.41 0.48 0.50 0.53 0.56 0.59 0.64
0.97 1.05 1.20 1.18 1.13 1.21 1.44 1.54 1.58 1.72 1.84 1.99 2.19 2.13 1.98 1.82 1.70 1.61 1.43 1.27 1.11 1.09 1.04 1.02 1.17 1.28 1.29 1.10 1.20 1.29 1.22 1.10 0.96 0.56 0.39 0.43 0.55 0.60 0.61 0.66 0.63 0.61 0.66
0.83 0.87 1.07 1.19 1.31 1.52 1.71 1.81 1.89 1.97 2.05 2.05 2.07 1.99 1.88 1.79 1.65 1.50 1.36 1.23 1.12 1.04 0.97 0.95 0.99 1.03 1.07 0.99 1.01 1.05 1.08 1.06 0.99 0.86 0.59 0.58 0.57 0.46 0.46 0.52 0.63 0.76 0.74
1.07 1.00 1.05 1.22 1.41 1.58 1.68 1.75 1.78 1.74 1.71 1.61 1.50 1.39 1.32 1.29 1.24 1.18 1.09 0.99 0.94 0.94 0.95 0.92 0.89 0.91 0.92 0.94 0.95 0.97 1.05 1.08 1.10 1.10 0.91 0.78 0.68 0.56 0.53 0.52 0.58 0.70 0.75